MST,Max TemperatureF,Mean TemperatureF,Min TemperatureF,Max Dew PointF,MeanDew PointF,Min DewpointF,Max Humidity, Mean Humidity, Min Humidity, Max Sea Level PressureIn, Mean Sea Level PressureIn, Min Sea Level PressureIn, Max VisibilityMiles, Mean VisibilityMiles, Min VisibilityMiles, Max Wind SpeedMPH, Mean Wind SpeedMPH, Max Gust SpeedMPH,PrecipitationIn, CloudCover, Events, WindDirDegrees
2012-2-1,42,27,12,11,5,-2,80,49,17,30.25,30.12,30.03,10,10,10,26,12,32,0.00,0,,219
2012-2-2,36,28,19,22,16,9,92,65,38,30.12,30.05,29.97,10,8,2,25,11,32,T,7,Snow,31
2012-2-3,23,17,11,19,17,10,100,89,77,30.45,30.26,30.09,10,5,1,22,10,30,T,8,Snow,6
2012-2-4,24,13,1,13,7,0,100,84,68,30.60,30.40,30.29,10,5,0,9,4,10,T,4,Fog-Snow,185
2012-2-5,28,16,4,19,8,0,92,75,57,30.50,30.39,30.28,10,10,10,12,5,18,0.00,2,,229
2012-2-6,28,14,-1,16,10,-5,92,74,55,30.39,30.27,30.12,10,9,2,17,8,23,T,4,Snow,313
2012-2-7,25,16,7,15,11,5,96,76,55,30.43,30.29,30.11,10,8,3,21,9,23,T,5,Snow,139
2012-2-8,36,21,5,20,13,3,88,62,35,30.27,30.17,30.05,10,10,10,30,17,37,0.00,4,,228
2012-2-9,36,24,12,19,14,6,84,62,40,30.29,30.18,30.09,10,10,10,32,12,37,T,2,,294
2012-2-10,33,22,10,25,18,6,100,75,49,30.24,30.11,30.03,10,4,0,21,10,25,0.06,6,Fog-Snow,88
2012-2-11,27,17,7,20,11,2,84,79,73,30.28,30.16,30.06,10,7,2,25,13,29,T,7,Snow,166
2012-2-12,36,22,8,28,23,7,100,80,59,30.04,29.72,29.61,10,4,0,13,4,14,0.20,6,Fog-Snow,29
2012-2-13,27,17,6,27,17,5,100,91,81,29.89,29.72,29.60,10,6,0,22,8,26,0.01,6,Fog-Snow,10
2012-2-14,29,18,6,23,16,3,92,83,73,29.90,29.75,29.64,10,7,0,17,7,17,T,4,Fog-Snow,353
2012-2-15,25,11,-4,14,7,-3,95,82,68,30.29,30.10,29.91,10,10,5,14,5,15,T,3,,223
2012-2-16,30,14,-2,19,5,-4,95,74,53,30.35,30.19,30.05,10,7,0,23,8,28,0.00,1,Fog,210
2012-2-17,28,15,2,19,10,1,96,74,51,30.25,30.14,30.00,10,8,0,23,11,26,T,4,Fog,207
2012-2-18,32,17,1,19,9,-3,91,65,38,30.24,30.06,29.85,10,10,10,23,10,28,0.00,0,,230
2012-2-19,35,22,8,21,15,0,92,71,50,29.91,29.68,29.56,10,6,0,28,11,33,T,5,Fog-Snow,327
2012-2-20,22,17,12,16,11,4,96,73,49,29.99,29.82,29.61,10,5,0,39,22,48,T,2,Fog-Snow,287
2012-2-21,31,24,17,26,20,10,85,76,67,29.96,29.86,29.74,10,8,2,40,25,47,T,5,Snow,248
2012-2-22,39,35,30,34,28,24,92,76,59,29.74,29.61,29.34,10,5,1,62,42,76,T,2,Rain-Snow,269
2012-2-23,32,21,9,25,14,1,100,83,66,30.14,29.72,29.46,10,4,0,46,21,69,0.07,4,Fog-Snow,322
2012-2-24,27,18,8,14,9,2,76,63,50,30.29,30.20,30.08,10,10,10,29,17,32,0.00,3,,262
2012-2-25,40,27,14,25,12,0,84,62,39,30.06,29.76,29.51,10,10,10,44,24,56,T,2,,246
2012-2-26,23,14,5,5,1,-6,69,56,43,30.28,30.07,29.78,10,10,10,49,23,59,0.00,0,,262
2012-2-27,42,24,6,23,12,-3,68,53,38,30.22,29.98,29.72,10,10,10,33,17,39,0.00,0,,163
2012-2-28,32,24,16,27,19,7,100,78,56,29.84,29.61,29.50,10,7,0,36,14,43,0.09,6,Fog-Snow,246
2012-2-29,35,25,15,19,13,5,74,61,47,29.96,29.84,29.71,10,10,2,40,20,52,0.00,1,Snow,245